![]() |
EMODnet Physics ERDDAP
Easier access to scientific data |
log in|
Brought to you by EMODnet Physics |
| Dataset Title: | NDBC - Collection of dew point temperature (DEWT) TimeSeries - IN SITU MultiPointTimeSeriesObservation
|
| Institution: | NDBC (Dataset ID: TS_DEWT_NDBC) |
| Information: | Summary
| License
| FGDC
| ISO 19115
| Metadata
| Background
| Subset
| Data Access Form
| Make a graph
|
| Name | Last modified | Size | Description | |
|---|---|---|---|---|
| Parent Directory | - | - | ||
| HSSF1_TS_DEWT_012004.nc | 27-Oct-2024 11:31 | 429687 | ||
| HSSF1_TS_DEWT_012006.nc | 27-Oct-2024 11:31 | 429680 | ||
| HSSF1_TS_DEWT_012007.nc | 27-Oct-2024 11:31 | 429680 | ||
| HSSF1_TS_DEWT_012008.nc | 27-Oct-2024 11:31 | 429686 | ||
| HSSF1_TS_DEWT_012009.nc | 27-Oct-2024 11:31 | 429900 | ||
| HSSF1_TS_DEWT_022004.nc | 27-Oct-2024 11:31 | 429908 | ||
| HSSF1_TS_DEWT_022006.nc | 27-Oct-2024 11:31 | 423308 | ||
| HSSF1_TS_DEWT_022007.nc | 27-Oct-2024 11:31 | 425508 | ||
| HSSF1_TS_DEWT_022008.nc | 27-Oct-2024 11:31 | 429905 | ||
| HSSF1_TS_DEWT_022009.nc | 16-Sep-2024 16:51 | 429902 | ||
| HSSF1_TS_DEWT_032004.nc | 27-Oct-2024 11:31 | 429901 | ||
| HSSF1_TS_DEWT_032006.nc | 27-Oct-2024 11:31 | 429909 | ||
| HSSF1_TS_DEWT_032007.nc | 27-Oct-2024 11:32 | 429897 | ||
| HSSF1_TS_DEWT_032008.nc | 27-Oct-2024 11:32 | 429902 | ||
| HSSF1_TS_DEWT_032009.nc | 16-Sep-2024 16:51 | 429900 | ||
| HSSF1_TS_DEWT_042004.nc | 27-Oct-2024 11:32 | 429987 | ||
| HSSF1_TS_DEWT_042005.nc | 27-Oct-2024 11:32 | 429911 | ||
| HSSF1_TS_DEWT_042006.nc | 27-Oct-2024 11:32 | 1216807 | ||
| HSSF1_TS_DEWT_042007.nc | 27-Oct-2024 11:32 | 1264732 | ||
| HSSF1_TS_DEWT_042008.nc | 27-Oct-2024 11:32 | 909595 | ||
| HSSF1_TS_DEWT_042009.nc | 16-Sep-2024 16:51 | 1143091 | ||
| HSSF1_TS_DEWT_052004.nc | 27-Oct-2024 11:32 | 1143302 | ||
| HSSF1_TS_DEWT_052005.nc | 27-Oct-2024 11:32 | 4254702 | ||
| HSSF1_TS_DEWT_052006.nc | 27-Oct-2024 11:32 | 3722634 | ||
| HSSF1_TS_DEWT_052007.nc | 27-Oct-2024 11:32 | 428025 | ||
| HSSF1_TS_DEWT_052008.nc | 27-Oct-2024 11:32 | 428947 | ||
| HSSF1_TS_DEWT_052009.nc | 16-Sep-2024 16:51 | 426876 | ||
| HSSF1_TS_DEWT_062004.nc | 27-Oct-2024 11:32 | 429361 | ||
| HSSF1_TS_DEWT_062005.nc | 27-Oct-2024 11:32 | 429357 | ||
| HSSF1_TS_DEWT_062006.nc | 27-Oct-2024 11:32 | 429313 | ||
| HSSF1_TS_DEWT_062007.nc | 27-Oct-2024 11:32 | 429357 | ||
| HSSF1_TS_DEWT_062008.nc | 27-Oct-2024 11:32 | 429121 | ||
| HSSF1_TS_DEWT_062009.nc | 16-Sep-2024 16:51 | 429005 | ||
| HSSF1_TS_DEWT_072004.nc | 27-Oct-2024 11:32 | 429359 | ||
| HSSF1_TS_DEWT_072005.nc | 27-Oct-2024 11:33 | 429365 | ||
| HSSF1_TS_DEWT_072006.nc | 27-Oct-2024 11:33 | 429353 | ||
| HSSF1_TS_DEWT_072007.nc | 27-Oct-2024 11:33 | 429355 | ||
| HSSF1_TS_DEWT_072008.nc | 27-Oct-2024 11:33 | 429424 | ||
| HSSF1_TS_DEWT_072009.nc | 16-Sep-2024 16:51 | 429357 | ||
| HSSF1_TS_DEWT_082004.nc | 27-Oct-2024 11:33 | 429358 | ||
| HSSF1_TS_DEWT_082005.nc | 27-Oct-2024 11:33 | 429357 | ||
| HSSF1_TS_DEWT_082006.nc | 27-Oct-2024 11:33 | 429351 | ||
| HSSF1_TS_DEWT_082007.nc | 27-Oct-2024 11:33 | 429561 | ||
| HSSF1_TS_DEWT_082008.nc | 27-Oct-2024 11:33 | 429561 | ||
| HSSF1_TS_DEWT_082009.nc | 16-Sep-2024 16:51 | 428866 | ||
| HSSF1_TS_DEWT_092004.nc | 27-Oct-2024 11:33 | 429565 | ||
| HSSF1_TS_DEWT_092005.nc | 27-Oct-2024 11:33 | 429507 | ||
| HSSF1_TS_DEWT_092006.nc | 27-Oct-2024 11:33 | 429560 | ||
| HSSF1_TS_DEWT_092007.nc | 27-Oct-2024 11:33 | 429561 | ||
| HSSF1_TS_DEWT_092008.nc | 27-Oct-2024 11:33 | 429565 | ||
| HSSF1_TS_DEWT_102004.nc | 27-Oct-2024 11:33 | 429562 | ||
| HSSF1_TS_DEWT_102005.nc | 27-Oct-2024 11:33 | 429564 | ||
| HSSF1_TS_DEWT_102006.nc | 27-Oct-2024 11:33 | 429564 | ||
| HSSF1_TS_DEWT_102007.nc | 27-Oct-2024 11:34 | 429562 | ||
| HSSF1_TS_DEWT_102008.nc | 27-Oct-2024 11:34 | 429560 | ||
| HSSF1_TS_DEWT_112005.nc | 27-Oct-2024 11:34 | 994812 | ||
| HSSF1_TS_DEWT_112006.nc | 27-Oct-2024 11:34 | 1093013 | ||
| HSSF1_TS_DEWT_112007.nc | 27-Oct-2024 11:34 | 994648 | ||
| HSSF1_TS_DEWT_112008.nc | 27-Oct-2024 11:34 | 994752 | ||
| HSSF1_TS_DEWT_122005.nc | 27-Oct-2024 11:34 | 994622 | ||
| HSSF1_TS_DEWT_122006.nc | 27-Oct-2024 11:34 | 4827915 | ||
| HSSF1_TS_DEWT_122007.nc | 27-Oct-2024 11:34 | 429674 | ||
| HSSF1_TS_DEWT_122008.nc | 27-Oct-2024 11:34 | 429638 | ||